Location: Charleston
(38.3500°N, 81.6330°W)
Time: 16:41:37
(UTC-04:00)

Daily predictions for brighter satellites

Satellite Brightness Start Highest point End
(mag) Time Altitude Azimuth Time Altitude Azimuth Time Altitude Azimuth
Cosmos 1726 Rocket 3.9 21:07:06 10° N 21:11:25 48° E 21:15:40 10° SSE
Cosmos 2233 Rocket 4.0 21:05:13 10° N 21:11:31 86° E 21:17:43 10° S
Cosmos 158 Rocket 4.0 21:08:48 10° SSW 21:13:50 86° WNW 21:19:04 10° NNE
ALOS 2.3 21:09:23 10° SSE 21:14:03 87° WSW 21:18:45 10° NNW
Okean 2 4.1 21:11:03 10° SSE 21:14:53 36° E 21:18:44 10° NNE
SeaSat 1 3.7 21:11:05 10° ESE 21:15:12 27° NE 21:19:19 10° N
CZ-3C R/B 4.2 21:11:39 10° SW 21:17:45 14° SSW 21:20:58 10° S
Cosmos 1464 Rocket 4.4 21:14:10 10° N 21:20:01 45° ENE 21:25:52 10° SSE
YAOGAN 11 4.1 21:16:45 10° SSE 21:21:07 87° ENE 21:25:28 10° NNW
Cosmos 2058 Rocket 3.4 21:18:11 10° N 21:22:25 47° E 21:26:37 10° SSE
Cosmos 2098 Rocket 3.4 21:19:57 10° NNW 21:23:14 54° W 21:27:16 10° S
Meteor 1-19 Rocket 4.2 21:18:35 10° S 21:24:13 81° E 21:29:49 10° N
Meteor 2-4 Rocket 3.9 21:20:06 10° S 21:25:49 61° E 21:31:40 10° NNE
Cosmos 2333 Rocket 3.8 21:23:44 10° SW 21:29:01 40° WNW 21:34:20 10° N
Cosmos 2251 Rocket 3.8 21:24:41 10° SSW 21:29:59 76° WNW 21:35:21 10° NNE
deb Chang Zheng 4 3.5 21:28:38 10° NNE 21:33:03 74° ESE 21:37:25 10° S
Cosmos 2297 3.7 21:27:37 10° NNW 21:33:21 79° ENE 21:39:04 10° SSE
ATLAS 3B R/B 4.3 21:29:52 10° SE 21:33:42 15° ESE 21:37:41 10° ENE
Milstar 3 Cent rocket 3.7 21:28:42 10° WSW 21:35:26 28° SSW 21:39:27 12° SSE
Cosmos 2034 Rocket 4.4 21:31:47 10° N 21:37:55 48° ENE 21:43:37 12° SSE
PSLV R/B 4.4 21:37:02 16° ESE 21:38:50 27° ENE 21:41:31 10° NNE
CZ-2C R/B 1.1 21:36:38 10° S 21:38:53 53° W 21:41:11 10° NNW
H-2A R/B 4.0 21:36:07 10° S 21:39:51 42° W 21:43:39 10° NNW
ERS-1 Rocket 3.0 21:37:55 10° SSE 21:42:55 83° WSW 21:47:58 10° NNW
Envisat 3.3 21:39:39 13° SE 21:44:05 51° ENE 21:49:00 10° N
BREEZE-M DEB (TANK) 2.6 21:38:27 10° SW 21:44:32 65° SE 21:46:57 10° ENE
OAO 3 Copernicus 4.5 21:42:04 10° W 21:47:01 57° S 21:50:52 16° ESE
Cosmos 1606 Rocket 4.3 21:42:53 10° NNW 21:47:13 53° W 21:51:29 10° S
Cosmos 1110 Rocket 4.2 21:42:03 10° NNW 21:47:21 74° WSW 21:52:34 10° S
USA 234 3.9 21:43:14 11° ESE 21:49:12 49° NE 21:55:29 10° NW
YAOGAN 6 4.2 21:50:25 17° ESE 21:52:01 22° ENE 21:54:58 10° NNE
H-2A R/B 2.2 21:48:29 10° S 21:52:40 73° WSW 21:57:01 10° NNW
MetOp-A 4.5 21:56:21 18° SE 22:00:05 50° ENE 22:05:14 10° N
Abrixas rocket 2.6 21:58:27 10° NW 22:01:52 59° NNE 22:03:38 25° ESE
Cosmos 1626 Rocket 3.6 21:57:46 11° S 22:02:02 65° E 22:06:25 10° NNE
ATLAS CENTAUR R/B 4.3 21:58:26 10° WSW 22:02:35 26° NW 22:06:49 10° N
Atlas Centaur 2 3.5 22:05:14 10° SW 22:12:19 39° SSE 22:18:15 17° ESE
Cosmos 2278 Rocket 4.2 22:09:56 10° NW 22:14:16 23° W 22:18:35 10° SSW
Meteor 1-15 Rocket 4.5 22:11:44 10° NNW 22:17:17 68° W 22:22:13 14° S
Cosmos 2228 3.5 22:13:43 10° NNW 22:18:04 59° W 22:21:31 16° S
PSLV R/B 3.2 22:17:16 10° WSW 22:20:47 68° SSE 22:22:27 29° E
Aureole 2 Rocket 3.9 22:17:05 10° SW 22:20:55 43° WNW 22:24:27 10° N
H-2A R/B 3.5 22:19:20 17° E 22:21:02 20° ENE 22:24:38 10° NNE
Cosmos 1939 Rocket 3.9 22:18:34 14° S 22:21:55 45° W 22:25:55 10° NNW
COSMOS 2455 2.9 22:16:16 10° S 22:22:08 59° ESE 22:28:02 10° NE
CZ-4 R/B 4.1 22:20:10 10° NNE 22:25:02 50° E 22:27:22 28° SSE
Cosmos 2369 Rocket 3.3 22:24:00 10° N 22:28:57 30° ENE 22:31:20 22° E
SPOT 1/Viking Rocket 3.6 22:26:44 30° SSE 22:29:15 66° ENE 22:34:23 10° N
SPOT 5 3.0 22:26:56 22° S 22:29:44 60° WSW 22:34:03 10° NNW
ARGOS 3.4 22:29:23 31° SE 22:31:50 55° ENE 22:37:08 10° N
Cosmos 1666 4.1 22:28:31 10° NNW 22:32:07 36° W 22:34:50 16° SSW
SL-16 R/B 4.1 22:27:42 10° WSW 22:32:39 30° WNW 22:37:36 10° N
Cosmos 1190 Rocket 4.5 22:37:27 35° SE 22:38:33 40° ESE 22:43:30 10° NE
NOAA 11 4.3 22:37:26 34° SE 22:39:39 59° ENE 22:44:59 10° N
Geosat 4.0 22:34:43 10° NNE 22:39:42 58° ESE 22:42:05 30° S
Tsikada Rocket 4.4 22:34:39 10° SSW 22:41:01 67° W 22:47:24 10° N
Landsat 7 4.5 22:40:04 34° ESE 22:41:15 40° ENE 22:45:40 10° N
NAVSTAR 52 R/B(PAM-D 4.1 22:39:28 10° W 22:43:38 89° N 22:43:46 82° E
DEBRIS 3.0 22:42:03 10° WNW 22:45:19 39° WSW 22:45:19 39° WSW
SeaSat 1 3.5 22:50:09 24° SSW 22:52:32 38° WSW 22:57:09 10° NW
Cosmos 1758 Rocket 4.0 22:53:08 43° E 22:53:08 43° E 22:57:16 10° NNE
Lacrosse 4 Rocket 2.9 22:55:02 22° ENE 22:55:02 22° ENE 22:56:52 10° NE
SL-08 RB Rocket 3.6 22:55:15 53° SSE 22:56:17 80° ENE 23:00:50 10° N
Terra 2.4 22:56:20 37° E 22:57:02 40° ENE 23:01:29 10° N
CARTOSAT-1 4.2 22:57:34 40° E 22:57:52 40° ENE 23:01:55 10° N
CZ-4B R/B 4.3 22:54:01 10° N 22:58:54 51° WNW 23:03:36 12° SW
Cosmos 1066 Rocket 4.1 22:57:30 36° S 22:59:58 83° E 23:05:46 10° N
Cosmos 1515 4.2 22:58:52 39° SW 22:59:58 56° W 23:03:47 10° N
Cosmos 1346 Rocket 2.8 23:03:05 62° ENE 23:03:05 62° ENE 23:06:38 10° NNE
Cosmos 1461 4.0 23:06:56 10° NW 23:10:44 32° WSW 23:11:08 31° SW
Cosmos 1825 Rocket 3.9 23:10:25 44° SW 23:11:37 64° W 23:16:03 10° N
Cosmos 2142 Rocket 4.5 23:07:03 10° N 23:13:23 84° W 23:15:39 43° S
Meteor 1-21 4.2 23:19:02 55° SSE 23:20:12 72° E 23:26:00 10° NNE
Cosmos 1842 4.3 23:23:01 36° NE 23:23:01 36° NE 23:25:40 10° NNE
ATLAS 3B R/B 2.8 23:16:52 15° SSW 23:23:26 83° ESE 23:31:02 10° NE
Cosmos 1634 Rocket 4.2 23:19:35 10° NNW 23:25:41 64° W 23:27:54 39° SSW
Cosmos 1943 3.4 23:23:34 27° SW 23:26:44 68° WNW 23:32:25 10° NNE
Cosmos 407 Rocket 3.4 23:27:23 60° SSW 23:28:23 88° WNW 23:33:39 10° NNE
USA 234 3.7 23:30:35 41° SSW 23:32:10 48° SW 23:38:29 10° NW
Cosmos 1943 Rocket 2.7 23:36:23 10° N 23:41:42 45° ENE 23:42:15 43° E
Cosmos 1766 3.9 23:38:58 10° NNW 23:42:13 54° NW 23:42:13 54° NW
Cosmos 1954 Rocket 3.9 23:47:02 77° E 23:47:02 77° E 23:52:14 10° NNE
Cosmos 2279 Rocket 4.1 23:45:15 10° NNW 23:51:27 70° W 23:52:42 55° SSW
